User: anonymous   Login
Location: Oshawa
(43.9000°N, 78.8670°W)
Time: 12:29:18
(UTC-04:00)
Language:

Cosmos 1953 Rocket - Orbit

View from above orbital plane
View from above orbital plane
View from above satellite
View from above satellite

Ground track
Ground track

The orbit data is extracted from the following two-line orbital elements,

1 19211U 88050B   16180.51270775  .00000093  00000-0  85540-5 0  9994
2 19211  82.5254 173.1809 0021314 198.9593 280.1289 14.82903814514376
Epoch (UTC): 28 June 2016 12:18:17
Eccentricity: 0.0021314
inclination: 82.5254°
perigee height: 605 km
apogee height: 635 km
right ascension of ascending node: 173.1809°
argument of perigee: 198.9593°
revolutions per day: 14.82903814
mean anomaly at epoch: 280.1289°
orbit number at epoch: 51437

The dashed part of the orbit path shows where the satellite is in the earth's shadow,  

DLR